Theta_e
329 329 329 330 328 327 330 330 331 331 331 333 347 351 356 357 357 359 358 355 354 355 355 352 352 351 349 348 347 344 344 348 349 351 352 352 352 353 349 350 350 351 351 352
332 327 328 328 330 331 329 329 329 329 330 336 349 352 356 356 354 355 355 355 355 354 353 353 353 352 351 350 349 346 346 347 349 350 353 353 352 353 352 352 351 351 352 353
330 325 327 328 328 328 328 328 329 330 330 343 347 350 354 355 352 353 355 353 354 352 352 352 352 352 351 350 348 348 347 346 346 346 343 344 349 351 352 352 352 353 352 353
330 327 331 329 329 330 331 331 333 337 334 345 346 350 351 350 350 350 349 351 350 348 348 348 351 351 351 350 350 348 348 345 345 342 341 342 343 345 348 349 350 350 349 346
331 327 331 330 330 331 331 336 343 342 340 342 350 349 347 345 345 347 344 340 337 336 337 334 339 346 349 349 348 348 347 347 346 345 343 341 341 341 342 344 345 343 342 338
331 334 330 335 331 328 329 331 335 337 344 345 346 349 348 343 340 339 334 332 329 327 326 325 327 332 336 335 337 337 340 340 340 341 339 339 339 338 338 340 340 340 333 328
326 330 331 331 328 326 332 336 334 339 341 341 345 344 344 340 336 331 327 325 323 320 321 322 323 326 323 324 325 328 330 333 334 334 336 337 337 339 336 337 334 330 326 323
328 333 336 329 330 335 335 332 333 337 338 338 336 338 334 330 327 324 321 320 319 319 319 319 320 320 320 321 322 324 327 328 328 327 328 331 335 332 332 329 329 327 324 322
331 334 331 330 331 332 331 331 333 336 335 335 335 332 329 324 322 319 317 317 317 318 319 318 316 318 318 319 320 323 324 326 327 327 329 331 332 331 329 328 328 328 328 325
328 328 328 328 330 332 332 331 332 333 332 331 328 325 323 323 320 319 318 317 315 316 316 316 316 316 316 317 318 320 321 322 324 324 325 327 329 329 329 329 329 329 328 326
328 326 326 326 327 330 332 332 331 331 330 326 322 321 320 321 321 320 319 318 318 316 315 314 315 315 314 316 317 318 318 318 319 319 322 318 314 315 315 314 314 314 323 321
330 330 328 327 325 326 328 331 330 329 328 324 321 321 319 318 318 317 319 318 317 315 316 314 314 312 313 314 314 314 315 316 316 317 317 315 313 307 305 305 309 310 311 309
328 326 326 325 323 323 324 326 328 329 326 323 321 320 320 319 319 318 316 316 318 318 315 314 314 313 312 312 312 313 313 312 312 313 314 314 312 311 307 298 297 298 300 302
324 325 325 324 324 322 322 322 323 327 327 325 323 322 319 320 322 322 320 319 318 317 316 315 314 314 313 312 312 312 312 310 311 310 311 311 312 311 309 307 307 303 297 297
324 324 324 324 323 323 322 321 323 324 325 325 325 324 323 321 322 320 321 321 321 320 318 317 315 314 313 312 311 311 310 308 308 309 309 308 309 309 309 309 309 307 301 298
323 322 321 321 321 321 321 321 321 322 323 323 324 324 324 324 323 322 323 322 321 321 319 317 316 315 312 310 311 310 309 306 306 306 306 306 307 306 307 307 307 307 307 307
323 321 320 319 318 318 318 319 320 321 321 321 321 322 323 323 323 323 324 323 321 321 320 318 317 315 313 311 310 308 307 306 303 304 305 305 306 305 306 306 306 306 306 304
319 319 318 317 317 317 317 316 316 317 317 319 320 321 321 322 322 322 322 322 321 320 320 319 318 316 314 311 310 308 307 305 303 304 305 305 305 305 305 305 305 305 304 300
317 317 315 316 316 316 316 316 316 317 316 316 316 316 318 319 319 320 320 321 320 320 320 319 318 315 315 313 311 310 308 306 305 304 305 305 305 305 305 305 305 305 304 303
317 316 316 316 316 316 317 317 317 317 317 317 316 315 315 315 316 317 318 320 320 319 319 319 319 317 315 315 311 310 310 308 307 306 306 306 305 305 305 305 306 305 305 304
318 317 317 317 317 317 317 316 317 317 317 317 314 314 314 315 315 315 316 317 317 318 319 318 318 317 317 315 314 312 310 310 308 307 307 306 306 306 306 306 306 306 306 305
318 318 318 318 318 318 317 316 316 316 316 314 312 312 312 313 313 313 313 314 314 314 316 316 316 316 316 315 314 313 312 310 309 308 307 307 307 306 306 307 307 306 306 306
318 318 318 318 318 317 317 315 314 313 313 312 312 313 313 313 312 311 312 312 312 311 311 311 312 313 313 313 313 313 312 311 310 307 307 308 307 306 306 306 306 306 306 306
319 318 319 319 318 316 316 313 312 312 311 313 312 312 311 310 311 310 311 310 309 308 310 310 309 308 309 311 313 313 312 312 311 308 307 307 307 306 306 306 306 306 306 306
320 320 320 318 316 314 313 313 312 311 311 312 311 311 310 309 310 309 309 309 308 309 310 308 307 308 308 309 310 311 312 312 310 309 308 309 308 306 306 306 306 306 306 306
321 319 317 316 314 311 312 312 310 310 311 310 310 309 309 309 309 309 309 308 308 308 308 308 307 308 309 310 311 310 311 311 310 309 309 309 307 306 306 307 306 306 306 306
319 316 315 313 311 310 310 309 310 310 309 309 310 309 309 308 308 307 307 307 307 307 307 307 307 307 307 307 308 309 311 310 310 309 309 308 308 306 306 307 306 306 307 306
Wind_Speed
1 7 11 10 13 15 14 17 15 10 10 5 16 13 12 11 7 7 8 13 14 13 19 25 24 25 21 18 17 24 17 11 12 11 13 13 10 11 12 13 13 13 12 11
12 8 10 13 8 9 8 13 14 18 18 12 16 12 13 12 10 9 10 10 10 11 16 20 23 22 19 18 17 18 20 15 15 14 9 11 11 11 12 12 13 13 13 12
13 11 10 13 14 10 13 14 14 15 16 13 6 7 8 12 8 8 10 11 14 12 14 15 18 19 21 20 19 18 17 15 13 12 11 8 6 8 8 7 8 8 7 5
13 7 10 4 7 11 4 11 8 16 3 7 10 10 8 6 8 8 6 7 9 10 11 9 9 16 19 21 21 18 16 15 13 12 11 10 14 12 9 10 5 6 7 6
10 12 8 13 4 1 3 1 17 17 14 4 10 7 8 6 4 9 9 9 9 8 8 8 7 5 12 15 14 14 14 14 12 10 11 13 11 9 9 9 6 7 9 6
4 7 16 7 12 11 6 9 8 6 12 6 3 6 5 9 9 10 10 10 11 12 12 11 10 11 14 14 14 15 16 14 12 9 11 11 12 10 6 6 9 14 9 4
5 4 2 8 11 11 14 4 9 9 6 5 4 5 6 14 13 13 14 14 15 18 20 16 15 17 21 21 18 16 13 13 13 11 9 8 7 5 10 11 16 14 8 6
5 4 8 11 4 5 6 5 8 7 3 3 3 8 12 12 11 13 17 18 18 21 21 20 21 25 21 21 16 16 15 13 12 10 7 7 8 7 8 12 10 10 9 7
5 2 4 8 8 6 5 2 7 7 5 4 4 9 10 10 10 14 19 19 19 19 20 19 19 18 21 15 14 14 12 10 10 9 8 7 8 9 9 9 9 9 9 8
1 4 8 7 7 8 6 6 8 9 11 10 15 12 11 7 11 14 16 17 17 17 17 16 16 15 16 13 11 11 8 7 7 7 7 6 7 8 8 7 7 7 6 5
3 5 6 6 7 8 9 7 9 11 17 17 18 13 11 9 12 11 9 11 11 12 14 15 13 11 11 13 10 8 6 5 4 6 5 5 9 7 6 3 4 7 3 0
5 9 5 6 5 5 7 9 8 10 12 16 20 15 13 11 13 13 11 10 10 10 10 10 11 10 9 10 9 9 6 6 5 7 7 6 5 4 3 3 2 1 4 4
4 4 5 7 5 5 6 6 11 12 15 14 14 16 17 19 16 14 9 8 6 4 6 9 10 8 5 5 7 5 5 5 3 2 5 6 6 5 4 4 5 3 4 4
7 8 7 8 6 5 6 7 4 14 15 13 12 11 15 13 14 12 15 14 9 5 4 3 3 3 5 4 3 2 2 4 3 3 4 5 5 6 5 5 4 3 2 4
8 6 3 7 5 5 6 8 6 7 10 11 12 13 12 14 13 14 15 13 13 13 10 9 6 6 3 4 5 1 0 1 2 3 2 2 5 5 6 5 4 8 4 3
8 6 5 7 6 5 5 5 8 8 7 9 12 14 14 15 15 16 16 16 17 16 14 11 10 10 10 8 6 5 3 4 5 5 3 5 4 5 5 5 6 6 6 4
9 7 6 5 5 5 6 5 6 3 5 5 7 6 10 10 10 12 14 18 16 14 13 14 13 11 11 10 8 7 7 6 8 6 6 7 6 7 8 8 8 8 9 5
7 5 6 5 5 5 4 3 2 2 3 2 1 5 8 10 10 12 12 13 14 15 17 16 14 13 13 12 12 11 9 9 8 10 9 9 9 10 8 8 9 8 7 3
7 6 6 6 6 5 7 7 6 4 3 3 4 5 4 7 8 10 11 13 16 18 17 16 18 18 17 17 17 14 14 13 13 13 13 12 11 12 12 13 11 10 9 10
9 9 8 8 6 6 5 5 5 4 5 3 5 5 6 7 7 6 6 10 14 15 16 16 19 19 20 19 22 16 15 15 15 14 14 14 15 15 16 13 11 11 11 10
12 12 10 9 8 8 7 7 8 8 6 0 5 5 5 5 6 7 9 14 8 8 9 10 10 18 20 20 21 20 17 17 18 18 18 18 18 18 18 17 16 15 14 12
15 13 13 12 10 8 7 7 8 5 2 5 6 6 6 7 6 7 8 10 4 3 2 8 8 14 19 19 18 21 21 20 21 19 17 17 19 21 21 19 19 17 16 14
16 15 13 10 9 9 7 9 7 7 7 7 6 4 4 6 5 5 4 8 7 10 9 11 12 11 9 18 19 22 24 23 22 20 18 22 23 22 22 22 21 19 18 16
17 16 14 12 10 9 10 9 8 7 6 5 5 4 3 6 8 4 3 4 7 7 6 8 10 12 13 14 18 21 22 19 21 24 26 23 21 16 20 23 23 22 20 17
16 16 15 13 12 11 11 11 9 7 9 9 7 6 4 1 4 5 3 8 8 4 5 10 11 10 10 16 21 20 22 24 24 26 25 26 25 23 21 24 24 18 18 15
11 10 12 13 12 13 13 11 13 12 13 11 11 9 6 6 7 6 7 1 4 5 4 7 9 13 9 9 13 15 17 18 21 24 25 23 27 33 31 29 24 20 20 24
20 18 12 11 10 9 11 14 13 12 9 10 10 9 8 6 3 5 3 3 3 3 3 5 5 5 8 12 9 6 5 10 18 24 26 29 29 33 33 32 31 27 25 20
Wind_Direction
198 240 284 285 221 209 232 256 267 251 261 264 157 149 152 147 160 140 153 175 191 171 179 188 187 188 196 198 194 200 209 210 210 217 231 217 216 224 222 230 233 236 238 238
303 213 255 280 215 267 255 235 251 267 275 42 84 118 136 139 167 168 178 179 173 172 171 180 189 190 192 198 191 179 187 201 195 199 197 210 213 213 216 223 229 227 226 228
247 267 289 231 249 249 236 252 251 245 255 45 94 115 134 136 163 166 183 171 164 179 186 197 190 189 189 186 183 173 176 183 198 199 187 178 185 211 188 185 208 219 214 204
260 298 230 288 39 350 338 312 348 307 7 13 310 84 81 100 158 150 124 112 91 91 99 77 184 192 190 181 179 183 183 186 186 196 205 199 206 203 168 148 169 169 127 98
278 250 161 246 93 313 277 88 13 335 310 341 55 97 57 55 67 114 123 101 81 81 90 86 83 95 173 181 184 180 183 177 170 169 161 169 170 160 152 162 144 133 113 92
247 295 274 129 319 333 288 230 62 253 18 325 210 244 128 117 105 95 91 101 99 90 88 87 88 118 133 126 133 135 137 135 151 166 187 195 195 209 185 197 181 150 136 121
200 214 305 132 204 271 254 45 9 26 13 313 283 354 89 108 93 97 91 85 88 80 71 72 94 111 84 93 82 109 125 136 138 147 147 150 148 162 170 158 146 135 131 142
274 152 247 357 296 351 1 324 18 53 38 82 97 75 77 84 94 98 93 89 88 86 77 80 91 92 79 78 87 89 97 102 111 117 129 137 126 121 145 150 138 136 139 136
125 294 71 53 46 29 345 315 10 51 67 111 117 93 89 91 100 98 94 86 88 92 88 84 82 92 89 76 79 79 83 92 102 112 117 124 132 127 131 140 146 161 171 166
3 87 78 54 57 49 32 47 71 79 79 82 85 85 84 92 90 92 97 100 105 101 97 95 95 93 95 92 84 88 90 94 107 109 112 121 137 143 157 191 189 186 187 189
99 144 139 79 55 58 77 60 75 81 103 100 86 66 63 60 73 75 81 92 104 100 95 99 99 95 102 109 107 108 119 118 141 133 141 86 66 61 61 48 27 335 144 266
186 207 152 104 89 69 78 95 102 113 112 110 120 125 105 87 82 64 62 86 90 96 100 106 102 99 103 113 120 124 155 183 174 166 172 143 136 83 106 108 207 230 165 147
133 152 91 126 113 88 86 103 121 125 128 134 139 139 142 145 141 122 110 43 29 79 110 115 111 106 99 108 121 128 92 113 146 231 178 162 169 167 138 67 82 120 154 176
142 150 165 183 146 136 118 113 129 136 152 162 149 147 134 131 143 160 163 163 179 194 146 110 116 123 132 124 112 134 129 184 193 202 211 199 204 197 180 184 178 87 88 110
174 214 218 144 176 171 172 166 162 154 165 168 171 168 171 174 189 184 180 183 192 206 195 179 189 200 193 158 144 163 173 183 258 235 201 251 220 214 216 199 192 145 160 128
179 190 194 191 195 213 224 205 236 159 189 184 186 193 196 203 204 202 188 192 201 211 209 200 202 206 189 185 178 172 211 230 211 232 194 217 212 233 228 204 208 192 205 172
194 188 206 207 221 223 237 251 258 234 170 203 215 222 195 202 206 210 206 207 211 212 214 213 207 200 195 191 196 195 203 221 210 222 226 228 216 219 230 215 213 208 206 202
204 191 206 204 185 172 168 152 167 215 228 305 288 225 239 237 221 226 218 216 211 217 216 217 210 203 199 193 190 198 206 206 212 214 214 219 229 229 219 226 222 207 187 209
190 185 189 186 194 179 173 203 184 154 181 236 268 264 267 263 241 241 249 225 228 221 224 220 215 206 206 206 202 206 207 209 206 213 219 218 212 221 221 225 217 212 208 182
193 199 202 199 211 233 231 228 253 221 224 273 290 280 265 268 269 275 269 257 255 246 246 244 218 213 217 218 216 221 223 218 220 218 222 222 221 222 223 223 225 212 211 220
201 203 209 217 223 229 244 257 240 240 250 205 294 281 283 289 284 279 243 247 283 237 238 240 229 228 227 229 218 227 236 233 225 224 224 221 233 229 223 220 216 226 220 217
209 211 217 222 220 219 229 247 234 233 246 259 256 267 269 263 254 251 255 277 338 51 269 270 258 251 246 240 221 227 233 233 236 233 224 234 233 235 230 227 221 217 223 220
214 216 220 217 212 222 201 215 201 216 221 226 236 239 262 313 334 326 295 47 313 325 310 282 280 273 246 234 229 233 233 232 234 233 230 242 238 235 241 231 230 226 224 222
212 210 207 203 203 197 198 204 220 190 216 196 207 192 213 231 159 67 57 26 356 330 326 315 306 288 271 255 250 240 239 237 234 234 232 239 234 232 250 246 234 231 227 227
205 194 190 188 192 196 200 196 205 192 185 179 160 182 170 96 52 109 61 103 52 32 70 21 359 295 286 258 254 252 239 237 231 232 238 241 231 229 230 243 244 236 236 236
190 178 182 192 191 211 195 179 205 179 187 173 187 185 176 170 168 229 192 204 284 311 3 59 38 23 352 303 273 263 246 237 242 242 238 239 234 226 222 243 247 239 239 242
157 161 169 183 211 216 204 193 188 180 204 192 191 193 205 212 224 263 252 281 290 278 310 305 330 13 13 24 12 330 281 252 255 244 247 244 233 228 234 238 242 237 235 247